New York, NY

6:02 AM EST on December 09, 2019 (GMT -0500)
La Guardia

Weather History for KLGA - October, 2019

Change the Weather History Date:

Monday, October 7, 2019

  Actual Average Record
Temperature  
Mean Temperature 70 °F 61 °F  
Max Temperature 79 °F 68 °F 85 °F (1944)
Min Temperature 60 °F 54 °F 40 °F (1954)
Degree Days  
Heating Degree Days 0 5  
Month to date heating degree days 24 31  
Since 1 July heating degree days 27 66  
Cooling Degree Days 5 1  
Month to date cooling degree days 27 12  
Year to date cooling degree days 1482 1202  
Growing Degree Days 20 (Base 50)    
Moisture  
Dew Point 60 °F    
Average Humidity 70    
Maximum Humidity 90    
Minimum Humidity 50    
Precipitation  
Precipitation 0.03 in 0.12 in 3.44 in (1972)
Month to date precipitation 0.48 0.86  
Year to date precipitation 36.96 34.84  
Snow  
Snow 0.00 in 0.00 in - ()
Month to date snowfall 0.0 0.0  
Since 1 July snowfall 0.0 0.0  
Snow Depth 0.00 in    
Sea Level Pressure  
Sea Level Pressure 30.14 in    
Wind  
Wind Speed 12 mph (SSW)    
Max Wind Speed 23 mph    
Max Gust Speed 32 mph    
Visibility 10 miles    
Events Rain    
T = Trace of Precipitation, MM = Missing Value Source: NWS Daily Summary

Daily Weather History Graph

Daily Weather History Graph

Search for Another Location

Airport or City:

Astronomy

Oct. 07, 2019 Rise Set
Actual Time 6:57 AM EDT 6:28 PM EDT
Civil Twilight 6:30 AM EDT 6:55 PM EDT
Nautical Twilight 5:58 AM EDT 7:27 PM EDT
Astronomical Twilight 5:26 AM EDT 7:58 PM EDT
Moon 3:50 PM EDT (10/7) 12:45 AM EDT (10/7)
Length of Visible Light 12h 24m
Length of Day
11h 30m
Waxing Gibbous, 69% of the Moon is Illuminated
Oct 7
Waxing Gibbous
Oct 13
Full
Oct 21
Last Quarter
Oct 27
New
Nov 4
First Quarter

Hourly Weather History & Observations

Time (EDT) Temp. Dew Point Humidity Pressure Visibility Wind Dir Wind Speed Gust Speed Precip Events Conditions
12:51 AM 70.0 °F 59.0 °F 68% 30.21 in 10.0 mi South 10.4 mph - N/A   Overcast
1:51 AM 70.0 °F 57.9 °F 65% 30.20 in 10.0 mi South 11.5 mph - N/A   Overcast
2:51 AM 70.0 °F 61.0 °F 73% 30.18 in 10.0 mi South 9.2 mph - N/A   Overcast
3:51 AM 70.0 °F 62.1 °F 76% 30.17 in 10.0 mi South 10.4 mph - N/A   Overcast
4:51 AM 69.1 °F 62.1 °F 78% 30.17 in 10.0 mi South 9.2 mph - N/A   Overcast
5:51 AM 69.1 °F 62.1 °F 78% 30.16 in 10.0 mi South 11.5 mph - N/A   Overcast
6:51 AM 70.0 °F 60.1 °F 71% 30.17 in 10.0 mi South 11.5 mph - N/A   Overcast
7:51 AM 70.0 °F 61.0 °F 73% 30.16 in 10.0 mi South 12.7 mph - N/A   Overcast
8:51 AM 71.1 °F 59.0 °F 66% 30.17 in 10.0 mi SSW 10.4 mph 21.9 mph N/A   Overcast
9:51 AM 73.0 °F 60.1 °F 64% 30.16 in 10.0 mi South 13.8 mph 21.9 mph N/A   Mostly Cloudy
10:51 AM 75.9 °F 59.0 °F 56% 30.14 in 10.0 mi SSW 13.8 mph - N/A   Mostly Cloudy
11:51 AM 75.9 °F 57.9 °F 54% 30.13 in 10.0 mi SW 18.4 mph 25.3 mph N/A   Mostly Cloudy
12:51 PM 77.0 °F 57.9 °F 52% 30.11 in 10.0 mi SW 15.0 mph 23.0 mph N/A   Mostly Cloudy
1:51 PM 78.1 °F 61.0 °F 56% 30.08 in 10.0 mi South 8.1 mph - N/A   Mostly Cloudy
2:51 PM 78.1 °F 62.1 °F 58% 30.06 in 10.0 mi SSE 16.1 mph - N/A   Mostly Cloudy
3:51 PM 77.0 °F 62.1 °F 60% 30.05 in 10.0 mi South 17.3 mph - N/A   Mostly Cloudy
4:51 PM 73.9 °F 63.0 °F 68% 30.05 in 10.0 mi South 15.0 mph - N/A   Mostly Cloudy
5:51 PM 73.0 °F 64.0 °F 73% 30.05 in 10.0 mi South 12.7 mph - N/A   Overcast
6:51 PM 73.9 °F 64.0 °F 71% 30.06 in 10.0 mi South 10.4 mph - N/A   Mostly Cloudy
7:51 PM 73.0 °F 63.0 °F 71% 30.07 in 10.0 mi Variable 3.5 mph - N/A   Overcast
8:09 PM 70.0 °F 63.0 °F 78% 30.10 in 10.0 mi NW 16.1 mph - 0.00 in Rain Light Rain
8:16 PM 66.9 °F 61.0 °F 81% 30.10 in 10.0 mi NNW 16.1 mph - 0.00 in Rain Light Rain
8:51 PM 64.9 °F 60.1 °F 84% 30.13 in 10.0 mi NW 10.4 mph - 0.00 in Rain Light Rain
9:40 PM 63.0 °F 59.0 °F 87% 30.16 in 10.0 mi NNW 15.0 mph - 0.00 in Rain Light Rain
9:51 PM 63.0 °F 59.0 °F 87% 30.16 in 10.0 mi North 10.4 mph - 0.00 in Rain Light Rain
10:36 PM 62.1 °F 57.0 °F 84% 30.17 in 10.0 mi North 10.4 mph - 0.00 in   Overcast
10:51 PM 62.1 °F 57.0 °F 84% 30.17 in 8.0 mi North 9.2 mph - 0.00 in Rain Light Rain
11:27 PM 61.0 °F 57.0 °F 87% 30.19 in 10.0 mi North 5.8 mph - 0.01 in Rain Light Rain
11:35 PM 62.1 °F 57.0 °F 84% 30.19 in 10.0 mi North 5.8 mph - 0.01 in Rain Light Rain
11:51 PM 61.0 °F 57.0 °F 87% 30.19 in 5.0 mi NNE 10.4 mph - 0.01 in Rain Light Rain